Theta_e
321 321 320 322 323 322 323 323 324 324 323 325 326 326 327 326 326 325 327 328 329 329 330 330 330 330 330 325 320 318 314 311 312 318 319 318 317 318 318 318 319 319 319 319
323 323 322 322 322 322 323 324 324 323 324 324 326 326 326 326 326 327 328 329 329 329 330 330 329 328 326 323 318 313 311 313 313 318 313 317 320 319 320 319 319 319 318 318
323 323 321 322 322 323 323 324 324 324 323 324 325 327 327 327 327 328 328 328 329 329 330 329 327 325 322 321 314 312 313 313 313 311 317 317 317 317 317 317 317 317 317 316
323 321 322 323 323 323 324 322 322 323 324 325 324 323 328 328 329 328 328 329 329 329 328 326 323 320 319 318 317 317 315 314 317 315 317 317 317 316 315 314 314 314 314 314
324 322 322 323 323 322 324 322 323 324 325 325 325 324 329 328 329 329 328 328 327 325 323 322 320 318 317 317 318 318 318 319 318 318 317 316 314 314 313 313 312 312 312 312
324 322 323 323 322 322 322 323 325 326 325 326 325 322 325 327 328 328 327 326 324 323 322 320 318 317 318 318 318 318 317 316 315 315 315 315 315 314 313 313 312 312 311 310
324 324 323 322 323 323 324 326 327 327 326 326 323 322 323 324 324 326 326 325 323 322 321 319 318 318 318 318 318 316 315 314 314 313 312 312 313 314 313 312 311 310 310 310
325 326 324 323 323 325 324 324 325 325 325 324 323 322 326 322 322 323 323 324 323 321 320 318 318 318 318 317 316 315 314 313 313 312 311 311 311 311 310 309 311 309 309 309
326 326 323 321 322 322 324 325 323 325 325 324 323 323 322 322 323 322 322 322 321 321 319 319 319 318 317 316 315 314 313 313 312 311 310 310 310 308 308 309 309 310 308 309
326 326 323 322 321 320 323 322 326 325 326 324 322 322 322 323 322 323 322 321 321 321 320 319 318 317 317 316 314 313 313 312 311 310 309 309 309 308 308 308 308 309 309 310
325 327 325 322 323 324 323 323 322 321 321 323 322 322 322 323 321 321 319 319 320 320 320 318 318 316 315 315 314 313 313 311 310 309 308 309 308 308 307 306 307 308 308 308
325 328 328 325 319 319 321 322 321 323 324 322 323 323 321 320 318 319 319 319 318 318 318 317 316 315 315 314 314 313 312 310 309 308 308 308 308 306 307 307 307 307 307 307
324 327 329 326 322 320 321 321 320 320 320 321 322 321 319 319 319 319 318 318 318 317 316 315 315 314 313 313 314 312 311 309 308 308 307 308 308 307 307 306 306 305 306 306
319 326 325 327 325 322 322 320 319 320 324 322 320 318 318 319 319 318 318 318 316 315 315 314 314 313 313 313 312 311 310 308 307 307 308 308 307 306 306 305 304 304 304 304
325 326 324 323 320 320 319 319 318 320 320 321 319 318 319 319 319 317 316 315 315 314 314 313 313 313 312 312 311 309 307 307 306 308 307 306 306 305 304 303 303 303 303 303
323 326 323 323 321 319 319 318 319 319 319 318 319 319 319 318 317 316 315 314 314 313 313 313 313 312 312 311 308 307 306 305 305 305 306 305 304 303 303 303 303 303 303 303
323 324 324 323 318 318 321 320 319 318 318 320 321 321 318 318 316 315 314 314 314 313 312 311 310 309 309 308 306 305 304 304 305 304 303 303 303 303 304 304 303 303 304 304
323 323 322 323 319 326 320 317 319 319 319 319 319 319 317 315 314 313 315 315 313 311 309 307 306 305 305 305 305 304 304 304 303 303 303 302 304 304 304 304 304 304 303 302
319 321 323 326 327 322 320 320 320 320 319 319 318 317 314 314 313 313 315 312 310 308 306 304 302 301 302 302 303 304 304 302 303 303 304 304 304 305 304 305 306 305 305 303
318 320 323 321 325 322 322 319 317 317 320 316 315 314 314 314 317 316 312 310 307 305 303 303 301 300 301 302 303 304 302 303 302 303 304 304 304 304 304 305 303 304 306 305
321 320 322 323 324 321 320 318 317 319 321 315 314 314 314 316 314 313 310 307 305 303 302 301 302 302 302 303 303 302 302 303 303 303 303 304 304 305 305 305 303 305 306 305
321 323 322 322 322 321 318 318 318 317 314 313 314 314 315 314 312 310 307 305 303 302 303 302 302 303 304 303 302 302 303 303 304 304 305 304 304 304 305 305 305 306 306 306
322 322 324 321 322 319 317 314 314 313 313 314 315 315 313 312 310 307 306 305 302 303 302 303 303 302 302 302 304 304 303 304 305 304 304 304 304 304 305 305 305 305 306 305
317 316 318 316 315 313 312 312 312 314 314 315 313 312 310 309 307 306 305 303 302 302 303 303 302 302 303 303 303 303 303 304 304 304 304 304 303 304 305 304 305 304 305 304
314 312 313 312 312 312 312 314 314 315 313 312 311 309 307 306 305 304 304 303 302 303 303 302 302 303 303 303 303 302 301 303 304 304 304 303 303 303 305 303 303 304 302 302
311 313 314 314 313 313 313 314 313 313 311 309 307 306 305 304 303 303 303 303 303 303 303 302 303 302 302 303 303 304 304 304 303 304 303 303 303 302 304 304 302 302 302 301
Wind_Speed
5 9 12 16 8 6 5 5 8 6 3 2 1 1 4 4 2 8 12 16 17 15 13 12 9 5 2 3 6 11 15 16 18 18 20 21 21 23 22 22 22 22 22 23
9 3 4 1 5 7 7 7 4 4 3 6 4 3 1 3 1 6 12 16 16 15 15 11 7 4 1 3 9 11 11 16 20 17 22 21 20 22 22 21 23 25 25 27
7 8 5 7 8 8 3 5 3 5 4 5 6 11 7 3 5 7 11 14 16 16 14 10 7 3 1 4 6 7 13 18 20 23 19 19 21 23 25 25 28 26 27 31
4 5 6 7 5 6 7 2 2 3 6 8 6 8 10 8 8 11 13 15 15 13 11 9 6 3 1 2 4 8 15 18 17 21 19 20 24 27 27 30 30 32 32 33
6 5 6 7 3 3 6 2 4 6 11 8 12 7 9 9 10 12 15 17 15 13 11 9 6 3 1 3 7 11 13 15 16 19 21 25 29 30 31 31 34 34 35 30
5 1 3 5 3 1 6 6 9 9 8 11 3 5 9 9 13 13 17 17 15 12 9 7 4 3 4 6 9 11 13 16 19 22 26 28 29 31 32 33 34 32 31 35
2 3 4 2 6 5 7 8 8 7 7 5 5 6 7 1 1 11 17 18 14 11 9 8 7 6 8 9 10 13 16 20 22 25 27 28 28 29 33 33 34 32 33 32
5 5 3 2 4 6 4 5 6 10 10 10 9 6 4 4 5 1 4 14 11 10 9 8 8 8 10 10 13 16 20 23 26 28 29 28 27 30 30 31 29 31 28 31
4 3 5 4 1 4 5 5 6 9 11 9 6 3 8 6 6 4 4 5 9 9 9 9 10 10 10 12 15 18 21 25 28 30 30 28 27 30 29 27 27 24 29 30
1 7 4 5 2 4 5 3 6 5 6 9 3 4 5 6 2 4 6 4 8 8 9 10 11 12 14 15 18 20 23 27 30 31 29 28 27 26 25 23 25 28 24 24
3 4 6 5 2 6 4 5 3 5 5 8 9 2 7 7 6 9 12 9 7 7 11 12 14 18 19 21 21 24 28 30 32 32 30 25 25 22 22 24 27 26 24 18
2 4 6 4 2 2 3 3 3 4 4 4 6 7 7 6 9 8 7 5 6 9 14 18 21 24 24 24 25 27 29 31 33 32 27 23 21 23 23 21 26 22 20 17
1 3 6 7 6 4 6 3 2 3 4 10 9 3 3 5 9 7 9 10 12 15 18 22 24 27 27 25 21 25 29 31 32 27 22 21 20 23 19 22 20 19 17 15
3 4 10 10 9 5 5 6 6 6 5 10 9 12 9 11 6 6 9 13 18 20 23 24 27 28 26 22 18 25 28 30 27 20 20 19 21 23 21 16 16 14 12 10
3 8 5 7 6 8 11 10 9 11 11 8 10 9 9 9 9 11 16 20 23 26 26 26 27 29 28 24 20 24 27 25 20 19 19 19 19 17 13 13 11 8 9 11
1 5 7 11 7 11 13 11 9 10 10 9 11 11 6 8 9 16 21 27 25 25 26 29 30 30 28 20 24 25 22 23 15 16 15 16 11 11 12 12 15 14 12 9
3 3 5 10 2 8 10 5 4 3 4 7 8 10 11 10 17 20 27 23 20 27 29 29 30 27 25 23 20 20 20 14 14 12 11 8 7 9 8 10 11 10 10 10
3 4 4 5 5 5 5 2 4 6 4 4 7 9 9 18 21 27 14 18 25 29 31 32 30 26 22 17 17 17 11 12 11 7 7 7 8 10 9 7 8 9 10 10
6 6 3 3 3 8 7 2 2 6 9 6 5 10 19 21 22 11 17 23 26 29 29 28 25 23 19 14 15 8 10 8 8 8 7 9 10 10 9 9 9 10 9 9
5 5 5 4 3 5 8 4 2 4 6 6 11 16 20 21 12 13 26 25 27 24 22 24 22 20 12 12 8 7 5 11 9 8 9 9 9 10 9 10 12 12 9 9
5 5 9 7 4 4 4 2 3 5 5 13 16 17 17 12 17 22 24 24 21 18 21 20 18 16 13 8 6 5 11 8 7 9 10 10 9 12 11 10 9 10 10 11
3 3 4 3 4 4 3 3 5 9 14 16 15 17 15 17 20 22 23 21 18 19 20 15 14 15 9 7 12 12 8 7 7 7 7 10 12 12 11 12 14 8 13 13
2 3 2 2 3 4 3 5 6 10 13 13 14 14 14 18 20 22 21 16 14 17 15 11 11 10 13 15 9 9 10 9 10 12 11 11 11 10 10 11 11 11 12 13
3 0 3 2 4 1 5 7 8 9 9 9 9 12 15 18 20 19 15 13 13 14 10 8 9 14 13 11 11 11 11 10 10 10 12 12 12 12 13 11 11 12 13 15
4 1 2 5 4 6 3 6 8 6 7 9 11 14 16 18 18 14 13 12 13 8 5 5 12 11 10 10 11 11 10 8 10 10 10 10 11 11 11 14 14 13 16 15
3 1 2 1 5 5 5 6 6 8 9 12 14 16 15 15 12 13 12 12 5 4 5 11 10 10 10 9 9 8 7 7 7 8 8 10 10 9 8 7 10 16 16 16
Wind_Direction
200 229 216 222 233 325 249 238 178 109 91 230 322 278 20 17 113 182 190 180 185 173 167 156 157 148 133 278 308 320 325 335 342 343 341 334 328 324 321 318 316 321 321 322
205 212 69 85 201 198 203 197 161 130 122 273 211 238 63 50 128 184 181 181 177 176 170 165 166 166 224 311 312 322 335 341 340 339 333 326 321 318 314 316 308 312 311 315
304 94 141 183 169 180 200 275 164 322 157 238 229 225 203 131 147 168 181 182 184 182 175 178 180 192 313 337 323 328 334 334 336 335 328 320 316 312 309 306 304 304 303 307
53 125 178 190 175 273 214 126 228 224 248 292 202 289 180 176 173 184 181 184 181 175 181 184 192 215 258 337 350 330 327 329 329 324 319 314 315 309 304 307 302 298 302 301
87 162 186 229 30 276 47 170 265 277 274 296 204 247 117 173 202 194 190 189 181 187 189 196 208 220 287 338 322 324 322 322 321 318 315 312 308 304 304 301 300 301 304 303
78 102 298 17 104 331 138 227 237 253 261 248 105 268 186 177 224 192 195 193 194 197 204 215 224 243 296 312 313 314 317 318 319 315 312 308 306 304 304 304 304 305 301 304
178 121 120 252 204 180 230 258 285 256 213 289 107 265 292 261 224 203 195 197 200 209 218 229 244 262 282 298 305 314 316 319 320 320 317 312 307 302 303 304 302 303 306 309
271 196 189 18 325 342 329 318 295 303 303 314 159 258 91 26 77 189 254 197 202 220 231 245 257 272 289 296 309 314 321 322 325 325 321 317 311 305 301 302 300 304 304 306
263 217 126 55 283 303 117 261 15 287 253 266 269 114 164 128 123 133 134 187 220 233 245 255 268 283 288 300 312 319 322 326 326 325 322 317 312 307 307 302 305 305 306 309
353 266 200 131 242 91 307 28 258 233 289 300 266 250 317 97 95 145 193 249 247 255 263 273 283 289 295 305 314 318 323 325 325 323 320 314 312 312 304 306 307 316 313 313
271 255 144 191 229 334 223 238 239 301 287 289 299 17 52 54 37 355 331 342 329 284 283 290 297 303 303 307 312 315 319 321 323 322 317 311 311 308 309 314 323 323 318 319
46 296 267 344 38 273 292 312 280 276 266 276 303 281 70 38 354 341 340 337 331 313 308 308 307 307 303 301 305 310 317 321 321 320 313 312 313 318 314 318 322 327 324 320
110 224 257 195 184 181 249 188 279 288 274 271 283 297 103 16 340 336 327 321 307 306 306 308 308 311 308 303 304 309 315 319 320 317 317 315 311 319 324 320 327 331 322 324
298 263 269 271 349 343 243 230 252 262 274 274 278 306 348 5 345 314 306 318 313 312 308 309 312 312 311 311 313 312 315 320 318 316 319 315 315 320 323 326 330 335 340 345
305 265 273 280 287 281 281 284 250 250 258 273 294 304 332 352 342 332 321 317 320 318 319 317 315 316 313 313 311 315 319 319 319 318 311 319 320 329 339 344 345 339 337 345
205 257 278 273 261 277 281 272 257 260 273 272 280 283 38 336 312 321 324 325 319 327 323 320 316 314 315 311 311 316 317 315 325 337 323 325 345 6 5 18 29 39 45 28
260 252 267 284 336 291 269 276 235 236 251 299 297 358 338 332 335 327 320 318 332 327 323 317 313 312 311 307 316 318 316 324 331 335 333 354 31 10 6 1 14 15 25 31
228 237 264 287 283 259 78 69 320 305 320 294 302 338 339 330 330 320 355 345 331 326 323 318 314 312 308 309 318 312 322 333 335 15 34 42 360 351 354 5 16 20 35 37
236 226 240 245 236 271 166 123 16 357 322 42 355 339 331 326 321 312 3 341 331 326 323 322 322 319 313 315 310 330 327 344 76 47 15 351 3 3 6 22 23 25 29 41
190 237 186 232 255 288 71 117 31 300 278 38 343 330 327 327 318 338 339 331 328 325 333 334 330 332 333 316 333 344 349 95 61 23 2 16 27 20 32 37 34 29 35 34
173 206 223 219 255 299 80 157 270 268 12 338 329 323 320 322 329 321 326 329 330 334 334 336 352 351 346 356 19 56 101 74 49 36 47 25 42 29 23 10 21 24 35 30
238 205 198 227 255 262 95 175 300 356 324 319 321 318 321 321 321 325 327 331 334 340 346 359 5 17 32 61 98 84 61 35 35 49 39 39 33 33 20 26 30 47 31 27
240 333 338 287 21 66 8 335 340 319 310 319 320 324 320 317 322 324 327 332 336 347 355 4 24 48 85 85 65 51 50 37 39 61 40 36 34 23 12 23 30 23 23 26
151 49 255 304 82 342 319 318 321 328 328 326 323 320 320 320 322 322 327 332 340 347 359 33 80 102 75 59 51 55 51 46 55 42 39 37 28 26 35 29 32 31 25 24
38 242 309 271 292 306 150 4 339 333 334 326 320 319 319 321 321 326 325 334 338 353 39 72 110 79 67 65 61 53 51 39 38 37 33 29 23 21 43 49 54 46 32 23
172 1 245 339 9 310 3 350 356 339 331 326 323 322 323 324 328 326 324 335 343 68 79 123 88 82 76 65 54 42 28 17 18 20 20 15 11 14 20 49 55 33 29 16